Change the Weather History Date:

Wednesday, October 19, 2011

  Actual Average Record
Temperature  
Mean Temperature 70 °F 65 °F  
Max Temperature 80 °F 78 °F 92 °F (1921)
Min Temperature 60 °F 52 °F 30 °F (1949)
Degree Days  
Heating Degree Days 0    
Month to date heating degree days 18  
Since 1 July heating degree days 18  
Cooling Degree Days 5    
Month to date cooling degree days 100  
Year to date cooling degree days 2062  
Growing Degree Days 20 (Base 50)    
Moisture  
Dew Point 55 °F    
Average Humidity 62    
Maximum Humidity 84    
Minimum Humidity 39    
Precipitation  
Precipitation 0.00 in 0.02 in 0.75 in (2004)
Month to date precipitation 0.90 0.29  
Year to date precipitation 10.25 8.32  
Since 1 July precipitation 0.90 0.48  
Snow  
Snow 0.00 in - - ()
Month to date snowfall 0.0  
Since 1 July snowfall 0.0  
Since 1 September snowfall 0.0  
Snow Depth 0.00 in    
Sea Level Pressure  
Sea Level Pressure 29.94 in    
Wind  
Wind Speed 9 mph (NW)    
Max Wind Speed 14 mph    
Max Gust Speed 17 mph    
Visibility 9 miles    
Events      
T = Trace of Precipitation, MM = Missing Value Source: NWS Daily Summary

Daily Weather History Graph

Daily Weather History Graph

Search for Another Location

Airport or City:

Trip Planner

Search our weather history database for the weather conditions in past years. The results will help you decide how hot, cold, wet, or windy it might be!

Date:

Astronomy

Oct. 19, 2011 Rise Set
Actual Time 7:09 AM PDT 6:17 PM PDT
Civil Twilight 6:43 AM PDT 6:43 PM PDT
Nautical Twilight 6:13 AM PDT 7:13 PM PDT
Astronomical Twilight 5:43 AM PDT 7:43 PM PDT
Moon No Moon Rise 1:40 PM PDT (10/19)
Length of Visible Light 11h 59m
Length of Day
11h 07m
Waning Gibbous, 54% of the Moon is Illuminated
Oct 19
Waning Gibbous
Oct 19
Last Quarter
Oct 26
New
Nov 2
First Quarter
Nov 10
Full

Hourly Weather History & Observations

Time (PDT) Temp. Heat Index Dew Point Humidity Pressure Visibility Wind Dir Wind Speed Gust Speed Precip Events Conditions
12:53 AM 66.9 °F - 57.9 °F 73% 29.92 in 9.0 mi NW 8.1 mph - N/A   Clear
1:53 AM 66.0 °F - 57.0 °F 73% 29.93 in 10.0 mi NW 8.1 mph - N/A   Clear
2:53 AM 63.0 °F - 57.0 °F 81% 29.93 in 6.0 mi WNW 11.5 mph - N/A   Haze
3:53 AM 62.6 °F - 55.4 °F 77% 29.93 in 6.0 mi NW 9.2 mph - N/A   Haze
4:53 AM 61.0 °F - 55.9 °F 83% 29.94 in 6.0 mi NW 12.7 mph - N/A   Haze
5:53 AM 60.1 °F - 55.0 °F 83% 29.94 in 6.0 mi NW 11.5 mph - N/A   Haze
6:53 AM 60.1 °F - 55.0 °F 83% 29.95 in 7.0 mi NW 10.4 mph - N/A   Clear
7:53 AM 60.1 °F - 55.0 °F 83% 29.96 in 6.0 mi NW 10.4 mph - N/A   Haze
8:53 AM 62.6 °F - 55.4 °F 77% 29.98 in 8.0 mi NW 10.4 mph - N/A   Clear
9:53 AM 66.0 °F - 55.0 °F 68% 29.99 in 9.0 mi WNW 9.2 mph - N/A   Clear
10:53 AM 70.0 °F - 55.0 °F 59% 29.99 in 10.0 mi NW 9.2 mph - N/A   Clear
11:53 AM 73.0 °F - 55.0 °F 53% 29.97 in 10.0 mi NNW 5.8 mph - N/A   Clear
12:53 PM 75.9 °F - 54.0 °F 46% 29.96 in 10.0 mi NNW 10.4 mph - N/A   Clear
1:53 PM 78.1 °F - 55.0 °F 45% 29.94 in 10.0 mi NW 8.1 mph - N/A   Clear
2:53 PM 78.1 °F - 54.0 °F 43% 29.92 in 10.0 mi WNW 6.9 mph - N/A   Clear
3:53 PM 80.1 °F 79.9 °F 53.1 °F 39% 29.91 in 10.0 mi NW 9.2 mph - N/A   Partly Cloudy
4:53 PM 79.0 °F - 53.1 °F 40% 29.90 in 10.0 mi WNW 9.2 mph - N/A   Partly Cloudy
5:53 PM 75.9 °F - 54.0 °F 46% 29.90 in 10.0 mi NW 9.2 mph - N/A   Clear
6:53 PM 73.0 °F - 54.0 °F 51% 29.91 in 10.0 mi NNW 6.9 mph - N/A   Clear
7:53 PM 71.1 °F - 54.0 °F 55% 29.92 in 10.0 mi NW 3.5 mph - N/A   Clear
8:53 PM 69.1 °F - 54.0 °F 58% 29.93 in 10.0 mi WNW 8.1 mph - N/A   Clear
9:53 PM 66.9 °F - 54.0 °F 63% 29.95 in 10.0 mi WNW 5.8 mph - N/A   Clear
10:53 PM 64.9 °F - 55.0 °F 70% 29.96 in 10.0 mi WNW 4.6 mph - N/A   Clear
11:53 PM 64.9 °F - 55.9 °F 73% 29.97 in 10.0 mi Calm Calm - N/A   Clear